Weather History for MMCZ - March, 2014

Change the Weather History Date:

Saturday, March 15, 2014

  Actual Average Record
Temperature  
Mean Temperature 73 °F -  
Max Temperature 78 °F 84 °F 89 °F (2008)
Min Temperature 68 °F 72 °F 60 °F (2013)
Cooling Degree Days 8    
Growing Degree Days 23 (Base 50)    
Moisture  
Dew Point 71 °F    
Average Humidity 91    
Maximum Humidity 100    
Minimum Humidity 78    
Precipitation  
Precipitation 0.00 in - - ()
Sea Level Pressure  
Sea Level Pressure 29.96 in    
Wind  
Wind Speed 5 mph ()    
Max Wind Speed 16 mph    
Max Gust Speed -    
Visibility 7.4 miles    
Events      
Averages and records for this station are not official NWS values.
T = Trace of Precipitation, MM = Missing Value Source: Averaged Metar Reports

Daily Weather History Graph

Daily Weather History Graph

Search for Another Location

Airport or City:

Trip Planner

Search our weather history database for the weather conditions in past years. The results will help you decide how hot, cold, wet, or windy it might be!

Date:

Astronomy

Mar. 15, 2014 Rise Set
Actual Time 5:56 AM CST 5:57 PM CST
Civil Twilight 5:34 AM CST 6:19 PM CST
Nautical Twilight 5:08 AM CST 6:44 PM CST
Astronomical Twilight 4:42 AM CST 7:10 PM CST
Moon 5:17 PM CST (3/15) 5:03 AM CST (3/15)
Length of Visible Light 12h 45m
Length of Day
12h 01m
Waxing Gibbous, 99% of the Moon is Illuminated
Mar 15
Waxing Gibbous
Mar 16
Full
Mar 23
Last Quarter
Mar 30
New
Apr 7
First Quarter

Hourly Weather History & Observations

Time (CST) Temp. Dew Point Humidity Pressure Visibility Wind Dir Wind Speed Gust Speed Precip Events Conditions
12:50 AM 68.0 °F 68.0 °F 100% 30.01 in 7.0 mi Calm Calm - N/A   Scattered Clouds
2:47 AM 68.0 °F 68.0 °F 100% 30.01 in 7.0 mi Calm Calm - N/A   Scattered Clouds
4:20 AM 68.0 °F 68.0 °F 100% 29.99 in 7.0 mi Calm Calm - N/A   Scattered Clouds
4:43 AM 68.0 °F 68.0 °F 100% 29.97 in 7.0 mi Calm Calm - N/A   Scattered Clouds
5:42 AM 68.0 °F 68.0 °F 100% 29.94 in 7.0 mi Calm Calm - N/A   Scattered Clouds
6:50 AM 68.0 °F 68.0 °F 100% 29.99 in 7.0 mi Calm Calm - N/A   Mostly Cloudy
7:46 AM 75.2 °F 73.4 °F 94% 30.00 in 8.0 mi ESE 6.9 mph - N/A   Scattered Clouds
8:47 AM 77.0 °F 73.4 °F 89% 30.04 in 8.0 mi SE 11.5 mph - N/A   Mostly Cloudy
9:44 AM 78.8 °F 73.4 °F 83% 30.02 in 8.0 mi SE 11.5 mph - N/A   Mostly Cloudy
10:40 AM 77.0 °F 73.4 °F 89% 30.01 in 8.0 mi SE 9.2 mph - N/A   Mostly Cloudy
11:40 AM 78.8 °F 71.6 °F 78% 29.98 in 8.0 mi SE 16.1 mph - N/A   Mostly Cloudy
12:40 PM 78.8 °F 71.6 °F 78% 29.97 in 8.0 mi SE 13.8 mph - N/A   Mostly Cloudy
1:40 PM 77.0 °F 73.4 °F 89% 29.94 in 8.0 mi SE 9.2 mph - N/A   Mostly Cloudy
2:45 PM 78.8 °F 71.6 °F 78% 29.96 in 8.0 mi SE 13.8 mph - N/A   Mostly Cloudy
3:41 PM 78.8 °F 71.6 °F 78% 29.92 in 8.0 mi SE 10.4 mph - N/A   Mostly Cloudy
4:58 PM 77.0 °F 71.6 °F 83% 29.92 in 8.0 mi SE 11.5 mph - N/A   Mostly Cloudy
5:47 PM 75.2 °F 73.4 °F 94% 29.90 in 7.0 mi SE 8.1 mph - N/A   Scattered Clouds
6:43 PM 73.4 °F 71.6 °F 94% 29.93 in 7.0 mi SE 4.6 mph - N/A   Scattered Clouds
7:48 PM 71.6 °F 71.6 °F 100% 29.92 in 7.0 mi ESE 6.9 mph - N/A   Scattered Clouds
8:46 PM 73.4 °F 71.6 °F 94% 29.96 in 7.0 mi ESE 9.2 mph - N/A   Scattered Clouds
9:46 PM 73.4 °F 71.6 °F 94% 29.95 in 7.0 mi ESE 9.2 mph - N/A   Scattered Clouds
10:53 PM 73.4 °F 71.6 °F 94% 29.91 in 7.0 mi ESE 12.7 mph - N/A   Scattered Clouds
11:48 PM 73.4 °F 71.6 °F 94% 29.90 in 7.0 mi SE 10.4 mph - N/A   Scattered Clouds